Regional Weather Roundup
Issued by NWS Albany, NY

Home | Current Version | Previous Version | Text Only | Print | Product List | Glossary On
Versions: 1 2 3 4 5 6 7 8 9 10 11 12 13 14 15 16 17 18 19 20 21 22 23 24 25 26 27
000
ASUS41 KALY 261910
RWRALY

NEW YORK STATE HOURLY WEATHER ROUNDUP
NATIONAL WEATHER SERVICE ALBANY NY
300 PM EDT MON JUN 26 2017

NOTE: "FAIR" INDICATES FEW OR NO CLOUDS BELOW 12,000 FEET WITH NO
SIGNIFICANT WEATHER AND/OR NO OBSTRUCTIONS TO VISIBILITY.

NYZ032-033-038>043-046>054-057>066-NYZ062>081-082-084-262000-
EAST


CITY           SKY/WX    TMP DP  RH WIND       PRES   REMARKS
ALBANY         MOSUNNY   71  54  54 N9        29.96S
GLENS FALLS    MOSUNNY   72  54  53 S13       29.94S
POUGHKEEPSIE   MOSUNNY   77  47  34 W8        29.96
NEWBURGH       MOSUNNY   75  54  46 W9G21     29.99F
MONTGOMERY     MOSUNNY   78  47  33 VRB5      29.98S
WHITE PLAINS   PTSUNNY   78  49  35 VRB6      29.99F
ISLIP          MOSUNNY   77  51  40 S14G21    30.00F
NEW YORK CITY  PTSUNNY   79  46  31 SW15      29.98F
CENTRAL PARK   PTSUNNY   77  50  38 VRB7      30.01F
$$

NYZ005>009-017-018-044>046-055-056-262000-
CENTRAL


CITY           SKY/WX    TMP DP  RH WIND       PRES   REMARKS
FULTON         MOSUNNY   65  56  72 SW7       29.97F
SYRACUSE       MOSUNNY   65  58  78 S3        29.96
ROME           LGT RAIN  60  55  83 NW10      30.00R
ELMIRA         MOSUNNY   73  50  44 SW7       29.96F
BINGHAMTON     CLOUDY    68  47  46 W12       30.00S
MONTICELLO     PTSUNNY   70  46  43 W9        30.02S
$$

NYZ026>034-041>043-087-262000-
NORTH


CITY           SKY/WX    TMP DP  RH WIND       PRES   REMARKS
WATERTOWN      MOSUNNY   68  54  60 SW10      29.95F
FORT DRUM      NOT AVBL
OGDENSBURG     FAIR      72  49  43 CALM      29.94F
MASSENA        MOSUNNY   69  47  45 VRB6      29.95F
SARANAC LAKE   CLOUDY    63  45  51 SW5       29.95F
PLATTSBURGH    MOSUNNY   72  49  44 SE8       29.94F
$$

NYZ001>004-010>016-019>021-085-262000-
WEST


CITY           SKY/WX    TMP DP  RH WIND       PRES   REMARKS
NIAGARA FALLS  MOSUNNY   73  50  44 SW20G32   29.93F
BUFFALO        MOSUNNY   70  51  51 SW23G30   29.95F
DUNKIRK        MOSUNNY   68  53  58 W13G26    29.98F
JAMESTOWN      CLOUDY    63  50  63 SW13      30.02S
WELLSVILLE     LGT RAIN  59  51  75 NW13      30.04R
ROCHESTER      PTSUNNY   70  58  65 NE8       29.95F
PENN YAN       PTSUNNY   71  47  42 W10       29.98F
$$

             KEY
       WCI = WIND CHILL INDEX
       VSB = VISIBILITY
       HX  = HEAT INDEX
$$




USA.gov is the U.S. government's official web portal to all federal, state and local government web resources and services.